EW4415 Weather Reports


Display with metric or nautical units.
time (UTC)temp
F
wind
direction
speed
MPH
gust
MPH
rain 1hr
in
rain 24hr
in
rain mn
in
humidity
%
barometer
mb
20260502163101 57 278 0.0 1.0 0.00 0.00 0.00 55 1007.6
20260502161534 58 257 0.0 4.0 0.00 0.00 0.00 54 1007.6
20260502151517 59 306 0.0 3.0 0.00 0.00 0.00 54 1007.9
20260502123027 59 71 0.0 11.0 0.00 0.00 0.00 51 1009.0
20260502121523 60 341 0.0 4.0 0.00 0.00 0.00 52 1009.2
20260502114513 59 146 0.0 6.0 0.00 0.00 0.00 53 1009.4
20260502113011 60 338 0.0 10.0 0.00 0.00 0.00 51 1009.3
20260502111506 61 346 0.0 1.0 0.00 0.00 0.00 52 1009.4
20260502110005 62 298 0.0 9.0 0.00 0.00 0.00 52 1009.6
20260502104557 63 236 0.0 5.0 0.00 0.00 0.00 50 1009.7
20260502103053 64 60 0.0 4.0 0.00 0.00 0.00 50 1009.8
20260502101550 64 143 0.0 8.0 0.00 0.00 0.00 53 1009.7
20260502091531 63 132 0.0 0.0 0.00 0.00 0.00 54 1010.2
20260502070056 56 141 0.0 0.0 0.00 0.00 0.00 54 1010.6
20260502064548 54 128 0.0 1.0 0.00 0.00 0.00 48 1010.6
20260502063043 52 263 0.0 0.0 0.00 0.00 0.00 36 1010.7
20260502061537 51 265 0.0 1.0 0.00 0.00 0.00 24 1010.9
20260502060033 50 231 0.0 0.0 0.00 0.00 0.00 1 1010.9
20260502054528 49 137 0.0 2.0 0.00 0.00 0.00 1 1011.0
20260502053024 46 239 0.0 0.0 0.00 0.00 0.00 1 1011.2
20260502051520 44 254 0.0 0.0 0.00 0.00 0.00 1 1011.3
20260502050015 43 306 0.0 1.0 0.00 0.00 0.00 1 1011.3
20260502044511 41 306 0.0 1.0 0.00 0.00 0.00 1 1011.5
20260502043007 38 314 0.0 0.0 0.00 0.00 0.00 1 1011.5
20260502041502 36 314 0.0 0.0 0.00 0.00 0.00 1 1011.7
20260502040058 35 314 0.0 0.0 0.00 0.00 0.00 1 1011.8
20260502034554 34 314 0.0 0.0 0.00 0.00 0.00 1 1011.7
20260502033049 33 314 0.0 0.0 0.00 0.00 0.00 1 1011.8
20260502031545 33 314 0.0 0.0 0.00 0.00 0.00 1 1012.1
20260502030041 33 314 0.0 0.0 0.00 0.00 0.00 1 1012.2
20260502024540 33 314 0.0 0.0 0.00 0.00 0.00 1 1012.2
20260502023032 33 314 0.0 0.0 0.00 0.00 0.00 1 1012.4
20260502021528 33 314 0.0 0.0 0.00 0.00 0.00 1 1012.5
20260502020023 34 314 0.0 0.0 0.00 0.00 0.00 1 1012.7
20260502014539 34 314 0.0 0.0 0.00 0.00 0.00 1 1012.8
20260502013018 34 314 0.0 0.0 0.00 0.00 0.00 1 1012.8
20260502011510 34 314 0.0 0.0 0.00 0.00 0.00 1 1013.1
20260502010008 35 314 0.0 0.0 0.00 0.00 0.00 1 1013.1
20260502004606 35 314 0.0 0.0 0.00 0.00 0.00 1 1013.1
20260502003056 35 314 0.0 0.0 0.00 0.00 0.00 1 1013.3
20260502001552 36 314 0.0 0.0 0.00 0.00 0.00 1 1013.4
20260502000056 36 314 0.0 0.0 0.00 0.00 0.00 1 1013.6
20260501234543 37 314 0.0 0.0 0.00 0.00 0.00 1 1013.6
20260501233039 37 314 0.0 0.0 0.00 0.00 0.00 1 1013.9
20260501231535 38 314 0.0 0.0 0.00 0.00 0.00 1 1014.0
20260501230031 38 314 0.0 0.0 0.00 0.00 0.00 1 1014.1
20260501224526 39 314 0.0 0.0 0.00 0.00 0.00 1 1014.0
20260501223022 40 314 0.0 0.0 0.00 0.00 0.00 1 1014.1
20260501221523 40 314 0.0 0.0 0.00 0.00 0.00 1 1014.3
20260501220015 41 314 0.0 0.0 0.00 0.00 0.00 1 1014.4
20260501214512 41 314 0.0 0.0 0.00 0.00 0.00 1 1014.5
20260501213004 41 314 0.0 0.0 0.00 0.00 0.00 1 1014.6
20260501211601 41 314 0.0 0.0 0.00 0.00 0.00 1 1014.8
20260501210056 41 314 0.0 0.0 0.00 0.00 0.00 1 1014.9
20260501204552 42 314 0.0 0.0 0.00 0.00 0.00 1 1014.9
20260501203047 42 314 0.0 0.0 0.00 0.00 0.00 1 1014.9
20260501201554 43 314 0.0 0.0 0.00 0.00 0.00 6 1014.9
20260501200038 43 314 0.0 0.0 0.00 0.00 0.00 8 1014.9
20260501194538 44 314 0.0 0.0 0.00 0.00 0.00 14 1014.9
20260501193029 45 314 0.0 0.0 0.00 0.00 0.00 20 1015.0
20260501191525 46 314 0.0 0.0 0.00 0.00 0.00 27 1015.1
20260501190021 47 314 0.0 0.0 0.00 0.00 0.00 34 1015.1
20260501184516 48 314 0.0 0.0 0.00 0.00 0.00 40 1015.1
20260501183013 49 314 0.0 0.0 0.00 0.00 0.00 47 1015.2
20260501181513 51 314 0.0 0.0 0.00 0.00 0.00 52 1015.3